SWA4071 KORD-KMCO

Flight info

Callsign SWA4071
Flight time 2h 6m
Altitude 41000
Route DENNT DARCY DREGS DUMGE SCOTO SWAPP Q79 THRSR ZJAYX GRNCH5
Aircraft B738/M-SADE2E3GIJ4RWZ/LB1D1

Departure

Time 2026-04-23 00:57
Airport Chicago O'Hare International Airport (KORD)

Arrival

Time 2026-04-23 03:04
Airport Orlando International Airport (KMCO)
Time Latitude Longitude Altitude Speed Heading
2026-04-22 23:44 41.97761 -87.89329 668 ft 0 kts 82°
2026-04-23 00:45 41.97758 -87.89361 668 ft 4 kts 80°
2026-04-23 00:45 41.97751 -87.89392 664 ft 3 kts 57°
2026-04-23 00:45 41.97735 -87.89413 666 ft 4 kts 356°
2026-04-23 00:46 41.97714 -87.89398 666 ft 4 kts 316°
2026-04-23 00:46 41.97698 -87.89379 667 ft 0 kts 324°
2026-04-23 00:50 41.97701 -87.89382 666 ft 2 kts 324°
2026-04-23 00:50 41.97723 -87.89407 665 ft 0 kts 301°
2026-04-23 00:50 41.97720 -87.89413 667 ft 1 kts 244°
2026-04-23 00:50 41.97700 -87.89429 668 ft 7 kts 195°
2026-04-23 00:51 41.97615 -87.89432 668 ft 17 kts 180°
2026-04-23 00:51 41.97468 -87.89430 668 ft 24 kts 180°
2026-04-23 00:51 41.97303 -87.89467 668 ft 24 kts 222°
2026-04-23 00:51 41.97220 -87.89654 668 ft 23 kts 244°
2026-04-23 00:52 41.97151 -87.89842 668 ft 22 kts 252°
2026-04-23 00:52 41.97136 -87.90044 668 ft 21 kts 269°
2026-04-23 00:52 41.97081 -87.90128 668 ft 13 kts 184°
2026-04-23 00:52 41.97042 -87.90206 668 ft 11 kts 266°
2026-04-23 00:53 41.97037 -87.90303 667 ft 10 kts 266°
2026-04-23 00:53 41.97039 -87.90398 667 ft 10 kts 273°
2026-04-23 00:53 41.97039 -87.90504 667 ft 14 kts 269°
2026-04-23 00:53 41.97038 -87.90682 667 ft 23 kts 271°
2026-04-23 00:54 41.97041 -87.90908 667 ft 23 kts 271°
2026-04-23 00:54 41.97039 -87.91120 668 ft 22 kts 269°
2026-04-23 00:54 41.97039 -87.91325 668 ft 22 kts 271°
2026-04-23 00:54 41.97036 -87.91526 669 ft 21 kts 270°
2026-04-23 00:55 41.97039 -87.91721 668 ft 21 kts 269°
2026-04-23 00:55 41.97038 -87.91911 668 ft 20 kts 270°
2026-04-23 00:55 41.97037 -87.92029 668 ft 12 kts 260°
2026-04-23 00:55 41.97009 -87.92075 667 ft 5 kts 206°
2026-04-23 00:56 41.97001 -87.92078 668 ft 1 kts 195°
2026-04-23 00:56 41.96992 -87.92081 662 ft 2 kts 188°
2026-04-23 00:56 41.96955 -87.92083 668 ft 8 kts 180°
2026-04-23 00:56 41.96906 -87.92047 668 ft 9 kts 108°
2026-04-23 00:57 41.96902 -87.91956 668 ft 13 kts 88°
2026-04-23 00:57 41.96903 -87.91603 671 ft 81 kts 89°
2026-04-23 00:57 41.96903 -87.90922 667 ft 138 kts 89°
2026-04-23 00:57 41.96887 -87.88925 1703 ft 166 kts 93°
2026-04-23 00:58 41.96554 -87.87397 2580 ft 185 kts 124°
2026-04-23 00:58 41.95531 -87.86238 3207 ft 197 kts 157°
2026-04-23 00:58 41.94256 -87.85707 4098 ft 200 kts 167°
2026-04-23 00:58 41.92819 -87.85159 4371 ft 229 kts 166°
2026-04-23 00:59 41.91217 -87.84548 4811 ft 245 kts 166°
2026-04-23 00:59 41.89519 -87.83902 4990 ft 265 kts 166°
2026-04-23 00:59 41.87732 -87.83232 4996 ft 274 kts 166°
2026-04-23 00:59 41.85869 -87.82542 5688 ft 278 kts 165°
2026-04-23 01:00 41.84010 -87.81891 6782 ft 276 kts 165°
2026-04-23 01:00 41.82126 -87.81278 7681 ft 282 kts 166°
2026-04-23 01:00 41.80185 -87.80662 8487 ft 291 kts 166°
2026-04-23 01:00 41.78198 -87.80036 9374 ft 296 kts 166°
2026-04-23 01:01 41.76205 -87.79405 10265 ft 300 kts 166°
2026-04-23 01:01 41.74095 -87.78735 10650 ft 325 kts 166°
2026-04-23 01:01 41.71829 -87.78011 11144 ft 340 kts 166°
2026-04-23 01:01 41.69505 -87.77266 11944 ft 346 kts 166°
2026-04-23 01:02 41.67148 -87.76512 12766 ft 351 kts 166°
2026-04-23 01:02 41.64749 -87.75746 13570 ft 357 kts 166°
2026-04-23 01:02 41.62304 -87.74968 14312 ft 363 kts 166°
2026-04-23 01:02 41.59833 -87.74181 15086 ft 367 kts 166°
2026-04-23 01:03 41.57341 -87.73385 15865 ft 370 kts 166°
2026-04-23 01:03 41.54816 -87.72574 16617 ft 375 kts 166°
2026-04-23 01:03 41.52259 -87.71749 17372 ft 379 kts 166°
2026-04-23 01:03 41.49716 -87.70927 18139 ft 382 kts 166°
2026-04-23 01:04 41.47111 -87.70083 18766 ft 387 kts 166°
2026-04-23 01:04 41.44479 -87.69229 19404 ft 391 kts 166°
2026-04-23 01:04 41.39151 -87.67484 20695 ft 398 kts 166°
2026-04-23 01:05 41.36451 -87.66590 21332 ft 401 kts 166°
2026-04-23 01:05 41.34650 -87.65990 21734 ft 404 kts 166°
2026-04-23 01:05 41.31907 -87.65081 22337 ft 408 kts 168°
2026-04-23 01:05 41.28150 -87.64898 23117 ft 411 kts 188°
2026-04-23 01:06 41.25332 -87.65597 23702 ft 412 kts 197°
2026-04-23 01:06 41.22654 -87.66978 24184 ft 414 kts 206°
2026-04-23 01:06 41.19981 -87.68443 24687 ft 418 kts 200°
2026-04-23 01:06 41.18105 -87.69097 25009 ft 422 kts 192°
2026-04-23 01:07 41.15174 -87.69513 25503 ft 426 kts 182°
2026-04-23 01:07 41.12194 -87.69320 25977 ft 430 kts 176°
2026-04-23 01:07 41.08213 -87.68862 26558 ft 435 kts 176°
2026-04-23 01:07 41.05181 -87.68498 26984 ft 439 kts 176°
2026-04-23 01:08 41.03117 -87.68256 27282 ft 441 kts 176°
2026-04-23 01:08 41.00041 -87.67906 27735 ft 444 kts 176°
2026-04-23 01:08 40.96953 -87.67567 28165 ft 447 kts 177°
2026-04-23 01:08 40.93896 -87.67046 28563 ft 452 kts 168°
2026-04-23 01:09 40.90886 -87.65790 28959 ft 456 kts 157°
2026-04-23 01:09 40.87991 -87.64013 29372 ft 459 kts 155°
2026-04-23 01:09 40.85095 -87.62182 29758 ft 462 kts 155°
2026-04-23 01:09 40.82178 -87.60335 30109 ft 466 kts 155°
2026-04-23 01:10 40.79240 -87.58490 30419 ft 469 kts 155°
2026-04-23 01:10 40.76278 -87.56645 30735 ft 471 kts 155°
2026-04-23 01:10 40.73307 -87.54809 31041 ft 474 kts 156°
2026-04-23 01:10 40.70303 -87.52964 31344 ft 476 kts 156°
2026-04-23 01:11 40.67322 -87.51140 31632 ft 479 kts 156°
2026-04-23 01:11 40.64288 -87.49287 31910 ft 482 kts 156°
2026-04-23 01:11 40.61241 -87.47429 32194 ft 484 kts 156°
2026-04-23 01:11 40.58172 -87.45559 32459 ft 486 kts 156°
2026-04-23 01:12 40.55093 -87.43684 32789 ft 487 kts 156°
2026-04-23 01:12 40.52013 -87.41810 33208 ft 486 kts 156°
2026-04-23 01:12 40.48947 -87.39946 33630 ft 485 kts 156°
2026-04-23 01:12 40.45883 -87.38085 33982 ft 485 kts 156°
2026-04-23 01:13 40.42813 -87.36222 34258 ft 485 kts 156°
2026-04-23 01:13 40.39788 -87.34388 34575 ft 485 kts 156°
2026-04-23 01:13 40.36721 -87.32530 34919 ft 484 kts 156°
2026-04-23 01:13 40.33666 -87.30682 35280 ft 482 kts 156°
2026-04-23 01:14 40.30619 -87.28840 35598 ft 482 kts 156°
2026-04-23 01:14 40.27567 -87.26998 35856 ft 483 kts 156°
2026-04-23 01:14 40.24517 -87.25159 36124 ft 483 kts 156°
2026-04-23 01:14 40.21458 -87.23316 36420 ft 482 kts 156°
2026-04-23 01:15 40.18411 -87.21482 36728 ft 482 kts 156°
2026-04-23 01:15 40.15368 -87.19652 37007 ft 482 kts 156°
2026-04-23 01:15 40.12321 -87.17821 37255 ft 482 kts 156°
2026-04-23 01:15 40.09269 -87.15990 37529 ft 482 kts 156°
2026-04-23 01:16 40.06221 -87.14163 37813 ft 481 kts 156°
2026-04-23 01:16 40.03177 -87.12339 38089 ft 481 kts 157°
2026-04-23 01:16 40.00128 -87.10515 38333 ft 481 kts 157°
2026-04-23 01:16 39.97120 -87.08716 38568 ft 481 kts 156°
2026-04-23 01:17 39.94074 -87.06898 38805 ft 481 kts 156°
2026-04-23 01:17 39.91035 -87.05085 39004 ft 480 kts 156°
2026-04-23 01:17 39.87992 -87.03271 39207 ft 480 kts 157°
2026-04-23 01:17 39.84949 -87.01459 39412 ft 480 kts 157°
2026-04-23 01:18 39.81915 -86.99654 39613 ft 479 kts 157°
2026-04-23 01:18 39.78878 -86.97849 39793 ft 479 kts 157°
2026-04-23 01:18 39.75880 -86.96069 39987 ft 479 kts 157°
2026-04-23 01:18 39.72854 -86.94274 40208 ft 478 kts 157°
2026-04-23 01:19 39.69831 -86.92483 40382 ft 478 kts 157°
2026-04-23 01:19 39.66794 -86.90686 40528 ft 478 kts 157°
2026-04-23 01:19 39.63767 -86.88895 40695 ft 478 kts 157°
2026-04-23 01:19 39.60741 -86.87107 40885 ft 477 kts 157°
2026-04-23 01:20 39.57719 -86.85324 41037 ft 477 kts 157°
2026-04-23 01:20 39.54690 -86.83538 41057 ft 479 kts 157°
2026-04-23 01:20 39.48605 -86.79955 41045 ft 478 kts 157°
2026-04-23 01:21 39.42591 -86.76419 41040 ft 476 kts 157°
2026-04-23 01:21 39.36571 -86.72888 41039 ft 473 kts 157°
2026-04-23 01:22 39.30588 -86.69385 41048 ft 471 kts 157°
2026-04-23 01:22 39.24613 -86.65893 41050 ft 470 kts 157°
2026-04-23 01:23 39.18686 -86.62436 41059 ft 470 kts 157°
2026-04-23 01:23 39.12708 -86.58956 41060 ft 471 kts 157°
2026-04-23 01:24 39.06722 -86.55478 41058 ft 473 kts 157°
2026-04-23 01:24 39.00735 -86.52005 41057 ft 475 kts 157°
2026-04-23 01:25 38.94687 -86.48504 41073 ft 477 kts 157°
2026-04-23 01:25 38.88626 -86.45001 41078 ft 479 kts 157°
2026-04-23 01:26 38.82528 -86.41484 41070 ft 480 kts 157°
2026-04-23 01:26 38.76417 -86.37966 41076 ft 481 kts 157°
2026-04-23 01:27 38.70349 -86.34479 41066 ft 481 kts 157°
2026-04-23 01:27 38.64231 -86.30970 41060 ft 480 kts 157°
2026-04-23 01:28 38.58122 -86.27473 41048 ft 479 kts 157°
2026-04-23 01:28 38.52083 -86.24023 41051 ft 478 kts 157°
2026-04-23 01:29 38.46019 -86.20564 41055 ft 476 kts 157°
2026-04-23 01:29 38.39979 -86.17126 41075 ft 475 kts 157°
2026-04-23 01:30 38.33932 -86.13689 41058 ft 474 kts 157°
2026-04-23 01:30 38.27906 -86.10271 41065 ft 473 kts 157°
2026-04-23 01:31 38.21927 -86.06886 41074 ft 472 kts 157°
2026-04-23 01:31 38.15916 -86.03489 41076 ft 472 kts 157°
2026-04-23 01:32 38.09913 -86.00103 41071 ft 472 kts 157°
2026-04-23 01:32 38.03888 -85.96711 41078 ft 473 kts 157°
2026-04-23 01:33 37.97858 -85.93321 41074 ft 473 kts 157°
2026-04-23 01:33 37.91866 -85.89960 41074 ft 474 kts 157°
2026-04-23 01:34 37.85833 -85.86580 41065 ft 474 kts 157°
2026-04-23 01:34 37.79792 -85.83203 41099 ft 475 kts 157°
2026-04-23 01:35 37.73732 -85.79822 41098 ft 476 kts 157°
2026-04-23 01:35 37.67669 -85.76444 41101 ft 476 kts 157°
2026-04-23 01:36 37.61635 -85.73089 41092 ft 476 kts 157°
2026-04-23 01:36 37.55569 -85.69722 41094 ft 476 kts 157°
2026-04-23 01:37 37.49492 -85.66354 41095 ft 476 kts 157°
2026-04-23 01:37 37.43427 -85.63000 41097 ft 476 kts 157°
2026-04-23 01:38 37.37358 -85.59649 41087 ft 476 kts 157°
2026-04-23 01:38 37.31291 -85.56305 41103 ft 475 kts 157°
2026-04-23 01:39 37.25276 -85.52996 41103 ft 474 kts 157°
2026-04-23 01:39 37.19225 -85.49673 41109 ft 474 kts 157°
2026-04-23 01:40 37.13177 -85.46357 41103 ft 473 kts 157°
2026-04-23 01:40 37.07139 -85.43052 41115 ft 473 kts 157°
2026-04-23 01:41 37.01098 -85.39752 41116 ft 473 kts 157°
2026-04-23 01:41 36.95055 -85.36456 41117 ft 473 kts 157°
2026-04-23 01:42 36.89048 -85.33185 41118 ft 473 kts 157°
2026-04-23 01:42 36.83003 -85.29899 41126 ft 473 kts 157°
2026-04-23 01:43 36.76982 -85.26632 41129 ft 474 kts 157°
2026-04-23 01:43 36.70928 -85.23352 41134 ft 474 kts 157°
2026-04-23 01:44 36.64868 -85.20074 41126 ft 475 kts 157°
2026-04-23 01:44 36.58655 -85.17319 41135 ft 472 kts 169°
2026-04-23 01:45 36.52202 -85.15692 41136 ft 473 kts 171°
2026-04-23 01:45 36.45786 -85.14123 41137 ft 473 kts 170°
2026-04-23 01:46 36.39327 -85.12490 41132 ft 473 kts 170°
2026-04-23 01:46 36.32873 -85.10827 41147 ft 473 kts 169°
2026-04-23 01:47 36.26419 -85.09159 41155 ft 473 kts 169°
2026-04-23 01:47 36.19958 -85.07495 41162 ft 473 kts 169°
2026-04-23 01:48 36.14589 -85.06116 41161 ft 473 kts 169°
2026-04-23 01:48 36.07089 -85.04193 41181 ft 473 kts 169°
2026-04-23 01:49 36.00632 -85.02541 41175 ft 473 kts 169°
2026-04-23 01:49 35.95270 -85.01171 41175 ft 473 kts 169°
2026-04-23 01:50 35.88817 -84.99524 41175 ft 473 kts 169°
2026-04-23 01:50 35.82359 -84.97879 41150 ft 473 kts 169°
2026-04-23 01:51 35.75939 -84.96246 41139 ft 473 kts 170°
2026-04-23 01:51 35.69483 -84.94607 41141 ft 473 kts 170°
2026-04-23 01:52 35.63017 -84.92967 41130 ft 473 kts 169°
2026-04-23 01:52 35.56599 -84.91342 41144 ft 473 kts 169°
2026-04-23 01:53 35.50146 -84.89707 41143 ft 473 kts 169°
2026-04-23 01:53 35.43677 -84.88069 41138 ft 474 kts 170°
2026-04-23 01:54 35.37211 -84.86435 41126 ft 474 kts 170°
2026-04-23 01:54 35.30745 -84.84803 41141 ft 474 kts 170°
2026-04-23 01:55 35.24274 -84.83173 41143 ft 474 kts 170°
2026-04-23 01:55 35.17856 -84.81559 41136 ft 474 kts 170°
2026-04-23 01:56 35.11383 -84.79933 41118 ft 474 kts 170°
2026-04-23 01:56 35.04911 -84.78310 41131 ft 474 kts 170°
2026-04-23 01:57 34.98445 -84.76692 41139 ft 474 kts 170°
2026-04-23 01:57 34.92018 -84.75086 41149 ft 474 kts 170°
2026-04-23 01:58 34.78966 -84.71832 41160 ft 473 kts 170°
2026-04-23 01:59 34.72534 -84.70232 41156 ft 474 kts 170°
2026-04-23 01:59 34.66091 -84.68631 41158 ft 473 kts 170°
2026-04-23 02:00 34.59608 -84.67024 41144 ft 473 kts 170°
2026-04-23 02:00 34.53198 -84.65399 41147 ft 473 kts 169°
2026-04-23 02:01 34.46758 -84.63701 41145 ft 473 kts 169°
2026-04-23 02:01 34.40307 -84.62002 41162 ft 473 kts 169°
2026-04-23 02:02 34.33912 -84.60330 41166 ft 472 kts 169°
2026-04-23 02:02 34.27492 -84.58658 41173 ft 471 kts 169°
2026-04-23 02:03 34.21073 -84.56989 41170 ft 471 kts 169°
2026-04-23 02:03 34.14657 -84.55322 41183 ft 471 kts 169°
2026-04-23 02:04 34.08250 -84.53660 41181 ft 470 kts 169°
2026-04-23 02:04 34.01882 -84.52019 41193 ft 469 kts 171°
2026-04-23 02:05 33.95455 -84.50579 41150 ft 469 kts 172°
2026-04-23 02:05 33.89030 -84.49212 41147 ft 469 kts 172°
2026-04-23 02:06 33.82606 -84.47818 41156 ft 468 kts 172°
2026-04-23 02:06 33.76221 -84.46417 41170 ft 468 kts 172°
2026-04-23 02:07 33.69801 -84.45009 41172 ft 468 kts 172°
2026-04-23 02:07 33.63399 -84.43493 41161 ft 470 kts 165°
2026-04-23 02:08 33.57387 -84.40394 41189 ft 471 kts 154°
2026-04-23 02:08 33.51578 -84.36824 41208 ft 471 kts 154°
2026-04-23 02:09 33.45728 -84.33258 41205 ft 472 kts 154°
2026-04-23 02:09 33.39842 -84.29727 41209 ft 472 kts 154°
2026-04-23 02:10 33.33995 -84.26248 41210 ft 472 kts 155°
2026-04-23 02:10 33.28094 -84.22745 41200 ft 473 kts 155°
2026-04-23 02:11 33.22195 -84.19246 41178 ft 473 kts 155°
2026-04-23 02:11 33.16345 -84.15781 41177 ft 473 kts 155°
2026-04-23 02:12 33.10432 -84.12283 41155 ft 473 kts 155°
2026-04-23 02:12 33.04546 -84.08806 41182 ft 473 kts 155°
2026-04-23 02:13 32.98631 -84.05317 41188 ft 473 kts 155°
2026-04-23 02:13 32.92731 -84.01842 41179 ft 473 kts 155°
2026-04-23 02:14 32.86836 -83.98376 41177 ft 473 kts 155°
2026-04-23 02:14 32.80974 -83.94934 41160 ft 472 kts 155°
2026-04-23 02:15 32.72129 -83.89750 41166 ft 472 kts 155°
2026-04-23 02:16 32.66221 -83.86294 41179 ft 472 kts 155°
2026-04-23 02:16 32.60378 -83.82881 41195 ft 472 kts 155°
2026-04-23 02:17 32.54466 -83.79433 41199 ft 472 kts 155°
2026-04-23 02:17 32.48572 -83.76001 41198 ft 472 kts 155°
2026-04-23 02:18 32.42678 -83.72573 41195 ft 471 kts 155°
2026-04-23 02:18 32.36784 -83.69150 41186 ft 471 kts 155°
2026-04-23 02:19 32.30932 -83.65757 41163 ft 471 kts 155°
2026-04-23 02:19 32.25032 -83.62341 41173 ft 471 kts 155°
2026-04-23 02:20 32.19141 -83.58935 41175 ft 471 kts 155°
2026-04-23 02:20 32.13245 -83.55531 41171 ft 471 kts 156°
2026-04-23 02:21 32.07387 -83.52153 41184 ft 471 kts 156°
2026-04-23 02:21 32.01490 -83.48759 41176 ft 471 kts 156°
2026-04-23 02:22 31.95598 -83.45372 41167 ft 471 kts 156°
2026-04-23 02:22 31.89743 -83.42011 41161 ft 471 kts 156°
2026-04-23 02:23 31.83856 -83.38635 41187 ft 470 kts 156°
2026-04-23 02:23 31.77974 -83.35268 41198 ft 470 kts 156°
2026-04-23 02:24 31.72087 -83.31903 41201 ft 470 kts 156°
2026-04-23 02:24 31.66203 -83.28543 41204 ft 470 kts 156°
2026-04-23 02:25 31.60353 -83.25222 41147 ft 469 kts 157°
2026-04-23 02:25 31.54458 -83.21927 41166 ft 469 kts 157°
2026-04-23 02:26 31.48565 -83.18642 41173 ft 468 kts 157°
2026-04-23 02:26 31.42688 -83.15363 41193 ft 468 kts 157°
2026-04-23 02:27 31.36800 -83.12079 41184 ft 468 kts 157°
2026-04-23 02:27 31.30916 -83.08802 41169 ft 468 kts 157°
2026-04-23 02:28 31.25064 -83.05547 41176 ft 468 kts 157°
2026-04-23 02:28 31.19179 -83.02278 41175 ft 468 kts 157°
2026-04-23 02:29 31.13290 -82.99012 41183 ft 468 kts 157°
2026-04-23 02:29 31.07404 -82.95752 41189 ft 469 kts 157°
2026-04-23 02:30 31.01520 -82.92496 41181 ft 469 kts 158°
2026-04-23 02:30 30.96605 -82.89780 41184 ft 469 kts 158°
2026-04-23 02:31 30.90707 -82.86526 41189 ft 469 kts 158°
2026-04-23 02:31 30.84328 -82.81678 41211 ft 474 kts 143°
2026-04-23 02:31 30.81747 -82.79259 40815 ft 481 kts 143°
2026-04-23 02:32 30.79987 -82.77590 40490 ft 482 kts 143°
2026-04-23 02:32 30.77421 -82.75169 39968 ft 480 kts 143°
2026-04-23 02:32 30.74810 -82.72740 39438 ft 480 kts 143°
2026-04-23 02:32 30.72187 -82.70337 38879 ft 480 kts 144°
2026-04-23 02:33 30.69548 -82.67944 38212 ft 480 kts 144°
2026-04-23 02:33 30.66922 -82.65579 37783 ft 475 kts 143°
2026-04-23 02:33 30.64322 -82.63243 37360 ft 470 kts 143°
2026-04-23 02:33 30.61749 -82.60934 36953 ft 466 kts 143°
2026-04-23 02:34 30.59194 -82.58641 36566 ft 461 kts 143°
2026-04-23 02:34 30.56666 -82.56373 36181 ft 457 kts 143°
2026-04-23 02:34 30.54191 -82.54153 35798 ft 454 kts 143°
2026-04-23 02:34 30.51704 -82.51924 35412 ft 450 kts 143°
2026-04-23 02:35 30.49283 -82.49755 35032 ft 447 kts 142°
2026-04-23 02:35 30.46772 -82.47506 34633 ft 445 kts 142°
2026-04-23 02:35 30.44324 -82.45315 34244 ft 442 kts 142°
2026-04-23 02:35 30.41892 -82.43140 33784 ft 440 kts 142°
2026-04-23 02:36 30.39477 -82.40981 33363 ft 437 kts 142°
2026-04-23 02:36 30.37110 -82.38866 32998 ft 434 kts 142°
2026-04-23 02:36 30.34723 -82.36734 32603 ft 431 kts 142°
2026-04-23 02:36 30.32353 -82.34620 32217 ft 428 kts 142°
2026-04-23 02:37 30.30003 -82.32524 31838 ft 425 kts 143°
2026-04-23 02:37 30.27664 -82.30439 31460 ft 422 kts 143°
2026-04-23 02:37 30.25340 -82.28369 31080 ft 420 kts 143°
2026-04-23 02:37 30.23028 -82.26312 30709 ft 418 kts 143°
2026-04-23 02:38 30.20687 -82.24338 30317 ft 415 kts 151°
2026-04-23 02:38 30.18052 -82.23162 29872 ft 409 kts 170°
2026-04-23 02:38 30.15265 -82.22590 29468 ft 404 kts 173°
2026-04-23 02:38 30.12501 -82.22087 29046 ft 401 kts 174°
2026-04-23 02:39 30.09748 -82.21588 28653 ft 398 kts 174°
2026-04-23 02:39 30.07022 -82.21078 28271 ft 395 kts 173°
2026-04-23 02:39 30.04314 -82.20558 27882 ft 392 kts 173°
2026-04-23 02:39 30.01631 -82.20032 27505 ft 389 kts 173°
2026-04-23 02:40 29.98974 -82.19507 27136 ft 386 kts 173°
2026-04-23 02:40 29.96332 -82.18985 26771 ft 384 kts 173°
2026-04-23 02:40 29.93757 -82.18476 26405 ft 382 kts 173°
2026-04-23 02:40 29.91131 -82.17958 26038 ft 379 kts 172°
2026-04-23 02:41 29.88532 -82.17441 25683 ft 377 kts 172°
2026-04-23 02:41 29.85950 -82.16925 25326 ft 375 kts 173°
2026-04-23 02:41 29.83386 -82.16413 24976 ft 373 kts 173°
2026-04-23 02:41 29.80829 -82.15903 24624 ft 371 kts 173°
2026-04-23 02:42 29.78284 -82.15395 24241 ft 370 kts 173°
2026-04-23 02:42 29.75746 -82.14890 23880 ft 369 kts 173°
2026-04-23 02:42 29.73244 -82.14392 23468 ft 368 kts 173°
2026-04-23 02:42 29.70737 -82.13893 23083 ft 366 kts 173°
2026-04-23 02:43 29.68228 -82.13394 22701 ft 363 kts 173°
2026-04-23 02:43 29.65742 -82.12900 22331 ft 361 kts 172°
2026-04-23 02:43 29.63274 -82.12409 21980 ft 358 kts 172°
2026-04-23 02:43 29.60842 -82.11926 21878 ft 348 kts 172°
2026-04-23 02:44 29.58518 -82.11463 21903 ft 339 kts 173°
2026-04-23 02:44 29.56175 -82.10999 21964 ft 346 kts 174°
2026-04-23 02:44 29.53765 -82.10525 21734 ft 355 kts 173°
2026-04-23 02:44 29.51329 -82.10042 21425 ft 354 kts 173°
2026-04-23 02:45 29.48921 -82.09564 21111 ft 349 kts 173°
2026-04-23 02:45 29.46535 -82.09090 20804 ft 345 kts 173°
2026-04-23 02:45 29.44175 -82.08623 20512 ft 344 kts 173°
2026-04-23 02:45 29.41819 -82.08158 20225 ft 342 kts 173°
2026-04-23 02:46 29.39469 -82.07695 19937 ft 341 kts 173°
2026-04-23 02:46 29.37121 -82.07232 19523 ft 344 kts 173°
2026-04-23 02:46 29.34753 -82.06765 19057 ft 345 kts 173°
2026-04-23 02:46 29.32438 -82.06308 18654 ft 342 kts 173°
2026-04-23 02:47 29.30139 -82.05683 18164 ft 340 kts 158°
2026-04-23 02:47 29.28035 -82.04429 17713 ft 336 kts 153°
2026-04-23 02:47 29.26017 -82.03116 17241 ft 332 kts 152°
2026-04-23 02:47 29.24012 -82.01809 16776 ft 329 kts 152°
2026-04-23 02:48 29.22019 -82.00523 16251 ft 328 kts 153°
2026-04-23 02:48 29.20038 -81.99259 15734 ft 326 kts 153°
2026-04-23 02:48 29.18048 -81.97999 15227 ft 325 kts 153°
2026-04-23 02:48 29.16095 -81.96767 14713 ft 324 kts 153°
2026-04-23 02:49 29.14112 -81.95519 14200 ft 323 kts 152°
2026-04-23 02:49 29.12153 -81.94288 13767 ft 318 kts 152°
2026-04-23 02:49 29.10236 -81.93084 13426 ft 311 kts 152°
2026-04-23 02:49 29.08360 -81.91907 13092 ft 303 kts 152°
2026-04-23 02:50 29.06558 -81.90697 12774 ft 297 kts 144°
2026-04-23 02:50 29.05032 -81.89127 12533 ft 294 kts 136°
2026-04-23 02:50 29.03573 -81.87483 12226 ft 296 kts 136°
2026-04-23 02:50 29.02097 -81.85854 11929 ft 302 kts 137°
2026-04-23 02:51 29.00576 -81.84204 11602 ft 299 kts 137°
2026-04-23 02:51 28.99101 -81.82618 11399 ft 289 kts 137°
2026-04-23 02:51 28.97676 -81.81032 11186 ft 285 kts 132°
2026-04-23 02:51 28.96434 -81.79265 10912 ft 286 kts 127°
2026-04-23 02:52 28.95242 -81.77430 10638 ft 289 kts 127°
2026-04-23 02:52 28.94042 -81.75579 10342 ft 288 kts 127°
2026-04-23 02:52 28.92847 -81.73762 10034 ft 283 kts 127°
2026-04-23 02:52 28.91664 -81.71986 9716 ft 280 kts 127°
2026-04-23 02:53 28.90472 -81.70212 9425 ft 282 kts 127°
2026-04-23 02:53 28.89293 -81.68463 9135 ft 279 kts 127°
2026-04-23 02:53 28.88123 -81.66730 8839 ft 273 kts 127°
2026-04-23 02:53 28.86969 -81.65022 8576 ft 272 kts 127°
2026-04-23 02:54 28.85814 -81.63313 8306 ft 273 kts 127°
2026-04-23 02:54 28.84658 -81.61604 8020 ft 269 kts 126°
2026-04-23 02:54 28.83525 -81.59928 7740 ft 265 kts 127°
2026-04-23 02:54 28.82396 -81.58259 7475 ft 266 kts 127°
2026-04-23 02:55 28.81260 -81.56581 7222 ft 268 kts 127°
2026-04-23 02:55 28.80129 -81.54911 7093 ft 261 kts 127°
2026-04-23 02:55 28.79043 -81.53299 6940 ft 250 kts 125°
2026-04-23 02:55 28.78098 -81.51681 6767 ft 248 kts 121°
2026-04-23 02:56 28.77170 -81.50004 6614 ft 252 kts 121°
2026-04-23 02:56 28.76229 -81.48312 6435 ft 252 kts 121°
2026-04-23 02:56 28.75301 -81.46657 6248 ft 243 kts 121°
2026-04-23 02:56 28.74402 -81.45064 6068 ft 234 kts 122°
2026-04-23 02:57 28.73571 -81.43510 5869 ft 226 kts 113°
2026-04-23 02:57 28.73054 -81.41845 5658 ft 220 kts 107°
2026-04-23 02:57 28.72574 -81.40214 5449 ft 220 kts 108°
2026-04-23 02:57 28.72074 -81.38563 5237 ft 221 kts 109°
2026-04-23 02:58 28.71566 -81.36903 5015 ft 222 kts 109°
2026-04-23 02:58 28.71056 -81.35249 4779 ft 221 kts 109°
2026-04-23 02:58 28.70292 -81.33746 4516 ft 222 kts 139°
2026-04-23 02:58 28.68882 -81.33106 4314 ft 221 kts 173°
2026-04-23 02:59 28.67375 -81.33000 4104 ft 219 kts 175°
2026-04-23 02:59 28.65851 -81.32937 3872 ft 219 kts 176°
2026-04-23 02:59 28.64328 -81.32909 3669 ft 217 kts 176°
2026-04-23 02:59 28.62854 -81.32892 3558 ft 211 kts 176°
2026-04-23 03:00 28.61382 -81.32877 3304 ft 212 kts 175°
2026-04-23 03:00 28.59911 -81.32861 3044 ft 210 kts 175°
2026-04-23 03:00 28.58463 -81.32846 2762 ft 205 kts 175°
2026-04-23 03:00 28.57057 -81.32831 2492 ft 197 kts 175°
2026-04-23 03:01 28.55720 -81.32818 2222 ft 186 kts 174°
2026-04-23 03:01 28.54492 -81.32805 2003 ft 172 kts 174°
2026-04-23 03:01 28.53339 -81.32792 1772 ft 160 kts 174°
2026-04-23 03:01 28.52277 -81.32781 1589 ft 144 kts 174°
2026-04-23 03:02 28.51305 -81.32769 1387 ft 137 kts 174°
2026-04-23 03:02 28.50348 -81.32757 1221 ft 139 kts 175°
2026-04-23 03:02 28.49370 -81.32746 1029 ft 140 kts 175°
2026-04-23 03:02 28.48397 -81.32736 842 ft 142 kts 176°
2026-04-23 03:03 28.47415 -81.32732 649 ft 144 kts 176°
2026-04-23 03:03 28.46408 -81.32721 436 ft 145 kts 176°
2026-04-23 03:03 28.45399 -81.32705 269 ft 146 kts 176°
2026-04-23 03:03 28.44379 -81.32695 119 ft 146 kts 178°
2026-04-23 03:04 28.43471 -81.32683 99 ft 103 kts 181°
2026-04-23 03:04 28.43018 -81.32677 99 ft 33 kts 178°
2026-04-23 03:04 28.42798 -81.32673 99 ft 31 kts 178°
2026-04-23 03:04 28.42611 -81.32586 99 ft 29 kts 121°
2026-04-23 03:05 28.42510 -81.32395 100 ft 28 kts 121°
2026-04-23 03:05 28.42417 -81.32212 105 ft 26 kts 121°
2026-04-23 03:05 28.42343 -81.32038 102 ft 23 kts 92°
2026-04-23 03:05 28.42347 -81.31858 99 ft 22 kts 89°
2026-04-23 03:06 28.42347 -81.31684 98 ft 22 kts 88°
2026-04-23 03:06 28.42349 -81.31509 96 ft 24 kts 90°
2026-04-23 03:06 28.42349 -81.31308 93 ft 26 kts 90°
2026-04-23 03:06 28.42331 -81.31114 93 ft 24 kts 101°
2026-04-23 03:07 28.42319 -81.30932 93 ft 23 kts 89°
2026-04-23 03:07 28.42329 -81.30755 97 ft 22 kts 85°
2026-04-23 03:07 28.42342 -81.30584 95 ft 22 kts 85°
2026-04-23 03:07 28.42353 -81.30410 93 ft 22 kts 88°
2026-04-23 03:08 28.42359 -81.30242 95 ft 21 kts 88°
2026-04-23 03:08 28.42361 -81.30078 93 ft 20 kts 89°
2026-04-23 03:08 28.42363 -81.29919 94 ft 20 kts 89°
2026-04-23 03:08 28.42422 -81.29797 95 ft 19 kts 13°
2026-04-23 03:09 28.42553 -81.29797 94 ft 19 kts 359°
2026-04-23 03:09 28.42679 -81.29798 95 ft 18 kts
2026-04-23 03:09 28.42837 -81.29800 94 ft 25 kts 357°
2026-04-23 03:09 28.43012 -81.29802 95 ft 28 kts
2026-04-23 03:10 28.43217 -81.29802 94 ft 29 kts 359°
2026-04-23 03:10 28.43359 -81.29806 95 ft 15 kts 359°
2026-04-23 03:10 28.43434 -81.29829 95 ft 11 kts 296°
2026-04-23 03:10 28.43476 -81.29890 94 ft 11 kts 339°
2026-04-23 03:11 28.43544 -81.29923 95 ft 10 kts 320°
2026-04-23 03:11 28.43562 -81.29997 94 ft 10 kts 257°
2026-04-23 03:11 28.43547 -81.30056 95 ft 3 kts 255°
2026-04-23 03:11 28.43547 -81.30058 95 ft 0 kts 255°